Home   Weather   George Washington   Past weeks
Flag for Cuba

Past Weather in George Washington, Cuba — Yesterday and Last 2 Weeks

Now
70 °F

Mild.


Feels Like: 70 °F
Forecast: 85 / 68 °F
Wind: 8 mph from Northeast

Location: Cienfuegos - Las Villas

Current Time: Mar 25, 2019 at 2:46:54 am

Latest Report: Mar 25, 2019 at 1:58 am


Visibility: N/A

Pressure: 30.07 "Hg

Humidity: 94%

Dew Point: 68 °F

Location of George WashingtonLocation

Past Weather in George Washington — Graph

°F

George Washington Temperature Yesterday

Maximum temperature yesterday: 88 °F (at 12:50 pm)
Minimum temperature yesterday: 70 °F (at 7:58 pm)
Average temperature yesterday: 75 °F

High & Low Weather Summary for the Past Weeks

 TemperatureHumidityPressure
High91 °F (Mar 11, 12:50 pm)100% (Mar 16, 7:59 am)30.15 "Hg (Mar 16, 7:59 am)
Low59 °F (Mar 22, 4:59 am)34% (Mar 16, 2:50 pm)29.89 "Hg (Mar 20, 4:59 pm)
Average76 °F74%30.05 "Hg
* Reported Mar 10 4:59 am — Mar 25 12:58 am, George Washington. Weather by CustomWeather, © 2019

Note: Actual official high and low records may vary slightly from our data, if they occured in-between our weather recording intervals... More about our weather records

Advertising

George Washington Weather History for the Previous 24 Hours

Scroll right to see more
 ConditionsComfort  
Time TempWeatherWind HumidityBarometerVisibility
12:58 am
Mon, Mar 25
70 °FMild.5 mph94%30.09 "HgN/A
11:58 pm
Sun, Mar 24
70 °FMild.6 mph94%30.09 "HgN/A
10:58 pm72 °FMild.9 mph88%30.09 "HgN/A
9:59 pm70 °FMild.9 mph100%30.09 "HgN/A
8:59 pm70 °FMild.7 mph100%30.09 "HgN/A
7:58 pm70 °FMild.7 mph100%30.09 "HgN/A
6:59 pm72 °FMild.3 mph100%30.09 "HgN/A
5:58 pm72 °FMild.8 mph94%30.07 "HgN/A
4:59 pm73 °FMild.5 mph94%30.07 "HgN/A
3:51 pm73 °FRain. Partly sunny.6 mph94%30.07 "Hg3 mi
2:51 pm86 °FScattered showers. Scattered clouds.6 mph49%30.07 "Hg6 mi
1:51 pm88 °FBroken clouds.8 mph49%30.09 "HgN/A
12:50 pm88 °FPartly sunny.8 mph49%30.12 "HgN/A
11:50 am82 °FPartly sunny.13 mph58%30.12 "HgN/A
10:50 am82 °FPartly sunny.13 mph58%30.15 "HgN/A
9:51 am79 °FPartly sunny.13 mph70%30.12 "Hg6 mi
8:50 am75 °FPartly sunny.10 mph78%30.12 "Hg6 mi
7:59 am73 °FMild.10 mph78%30.12 "HgN/A
6:59 am73 °FMild.8 mph78%30.09 "HgN/A
5:58 am73 °FMild.8 mph83%30.09 "HgN/A
4:59 am73 °FMild.9 mph83%30.07 "HgN/A
3:58 am73 °FMild.8 mph78%30.09 "HgN/A
2:59 am73 °FMild.7 mph78%30.09 "HgN/A
Weather by CustomWeather, © 2019

See weather overview